EHI
1 1 2 2 1 0 0 0 0 0 0 0 1 3 4 3 1 0 1 0 0 0 0 0 0 0 0 0 0 0 0 0 0 0 0 0 0 0
2 1 1 2 1 0 0 0 0 0 0 1 2 3 4 2 0 1 1 1 0 0 0 0 0 0 0 0 0 0 0 0 0 0 0 0 0 0
3 2 1 1 1 1 0 0 0 0 0 2 3 4 3 2 1 2 2 1 0 0 0 0 0 0 0 0 0 0 0 0 0 0 0 0 0 0
2 2 1 0 1 2 1 0 0 0 1 2 2 3 3 3 3 3 2 1 0 0 0 0 0 0 0 0 0 0 0 0 0 0 0 0 0 0
0 0 0 0 1 3 2 0 0 1 2 2 2 3 3 3 3 2 1 0 0 0 0 0 0 0 0 0 0 0 0 0 0 0 0 0 0 0
1 1 1 0 1 2 1 1 0 1 2 2 2 3 3 1 1 1 0 0 0 0 0 0 0 0 0 0 0 0 0 0 0 0 0 0 0 0
2 2 2 1 0 0 1 1 0 0 1 1 2 2 2 1 0 0 0 0 0 0 0 0 0 0 0 0 0 0 0 0 0 0 0 0 0 0
1 1 1 1 0 0 0 0 0 0 0 1 1 1 1 1 0 0 0 0 0 0 0 0 0 0 0 0 0 0 0 0 0 0 0 0 0 0
1 1 1 1 0 0 0 0 0 0 0 1 1 0 0 0 0 0 0 0 0 0 0 0 0 0 0 0 0 0 0 0 0 0 0 0 0 0
1 1 2 2 1 0 0 0 0 0 0 0 0 0 0 0 0 0 0 0 0 0 0 0 0 0 0 0 0 0 0 0 0 0 0 0 0 0
0 1 2 2 1 0 0 0 0 0 0 0 0 0 0 0 0 0 0 0 0 0 0 0 0 0 0 0 0 0 0 0 0 0 0 0 0 0
0 0 1 1 0 0 0 0 0 0 0 0 0 0 0 0 0 0 0 0 0 0 0 0 0 0 0 0 0 0 0 0 0 0 0 0 0 0
0 0 0 0 0 0 0 0 0 0 0 0 0 0 0 0 0 0 0 0 0 0 0 0 0 0 0 0 0 0 0 0 0 0 0 0 0 0
0 0 0 0 0 0 0 0 0 0 0 0 0 0 0 0 0 0 0 1 1 0 0 0 0 0 0 0 0 0 0 0 0 0 0 0 0 0
0 0 0 0 0 0 0 0 0 0 0 0 0 0 0 0 0 0 0 1 1 0 0 0 0 0 0 0 0 0 0 0 0 0 0 0 0 0
0 0 0 0 0 0 0 0 0 0 0 0 0 0 0 0 0 0 0 1 1 0 0 0 0 0 0 0 0 0 0 0 0 0 0 0 0 0
0 0 0 0 0 0 0 0 0 0 0 0 0 0 0 0 0 0 0 0 0 0 0 0 0 0 0 0 0 0 0 0 0 0 0 0 0 0
0 0 0 0 0 0 0 0 0 0 0 0 0 0 0 0 0 0 0 0 0 0 0 0 0 0 0 0 0 0 0 0 0 0 0 0 0 0
0 0 0 0 0 0 0 0 0 0 0 0 0 0 0 0 0 0 0 0 0 0 0 0 0 0 0 0 0 0 0 0 0 0 0 0 0 0
0 0 0 0 0 0 0 0 0 0 0 0 0 0 0 0 0 0 0 0 0 0 0 0 0 0 0 0 0 0 0 0 0 0 0 0 0 0
0 0 0 0 0 0 0 0 0 0 0 0 0 0 0 0 0 0 0 0 0 0 0 0 0 0 0 0 0 0 0 0 0 0 0 0 0 0
0 0 0 0 0 0 0 0 0 0 0 0 0 0 0 0 0 0 0 0 0 0 0 0 0 0 0 0 0 0 0 0 0 0 0 0 0 0
0 0 0 0 0 0 0 0 0 0 0 0 0 0 0 0 0 0 0 0 0 0 0 0 0 0 0 0 0 0 0 0 0 0 0 0 0 0
Wind_Speed
3 3 3 2 2 2 2 2 2 3 3 2 1 1 1 1 4 3 3 7 8 9 10 10 9 9 9 9 9 9 9 9 9 9 8 8 8 8
3 3 3 2 2 2 2 2 2 3 3 1 1 1 1 2 3 3 3 6 8 10 10 11 11 10 10 10 10 10 9 9 9 9 9 9 9 8
4 4 3 3 2 2 2 2 2 2 3 2 1 1 2 2 2 3 2 4 5 10 11 11 11 11 10 10 10 10 10 10 10 10 9 9 9 9
4 3 3 3 3 3 2 2 2 2 2 3 2 2 3 3 3 4 3 4 3 7 11 11 11 11 11 11 11 10 10 10 10 10 10 9 9 9
3 3 3 3 3 3 3 2 2 3 2 2 3 2 2 2 2 3 3 2 3 4 8 10 11 11 11 11 11 11 10 10 10 10 10 10 10 9
3 3 3 3 3 3 3 2 2 2 2 2 2 2 2 2 1 2 2 2 2 3 3 4 7 9 9 10 11 11 11 11 10 10 10 10 10 9
2 3 3 3 3 3 3 2 2 2 2 2 3 2 2 1 2 2 2 1 2 2 1 2 3 4 5 7 9 10 10 10 10 10 9 9 9 9
3 3 3 3 3 4 5 3 3 3 3 3 2 2 2 2 1 2 1 1 2 1 1 2 2 2 3 4 7 10 10 10 10 10 10 10 10 10
3 2 3 2 1 1 3 5 5 6 6 4 3 3 3 2 2 2 2 2 2 2 1 3 2 2 2 3 6 8 9 10 11 11 11 11 10 10
2 2 2 1 1 1 2 3 3 3 4 4 3 3 3 2 2 3 3 2 3 2 2 2 2 2 2 2 4 6 7 8 9 10 10 10 10 11
2 2 2 2 1 1 1 1 1 2 2 2 3 3 4 4 2 1 2 2 3 2 1 1 2 2 2 1 3 6 7 8 8 8 9 9 10 9
2 1 2 2 2 1 1 1 2 2 3 2 2 4 4 4 4 3 2 3 2 2 1 1 2 1 2 2 2 3 4 6 8 8 8 9 9 6
1 1 1 3 3 2 2 2 3 3 3 3 2 1 1 1 1 2 3 2 3 3 2 1 2 2 2 2 1 2 3 3 4 5 7 8 8 7
1 0 1 3 3 3 3 4 4 3 2 2 1 2 1 1 2 2 2 3 3 4 4 3 2 2 2 3 2 2 2 2 3 4 4 6 7 9
2 1 2 3 3 4 5 5 4 3 2 2 2 2 2 2 2 1 2 3 4 5 5 4 4 3 3 3 3 3 2 3 3 3 3 4 4 4
4 3 4 5 5 5 3 4 4 3 3 2 3 2 2 2 2 2 2 3 3 3 4 5 5 4 4 4 3 3 3 2 2 2 2 3 3 4
2 2 3 3 4 4 3 3 3 3 3 4 3 3 2 2 2 2 3 3 3 3 3 3 4 4 4 3 3 3 3 2 2 2 2 3 3 4
2 3 3 3 3 3 3 3 3 3 3 3 3 2 2 3 3 2 2 2 3 2 2 2 2 2 3 3 4 4 3 2 2 2 2 3 4 3
3 4 3 3 3 2 2 2 2 2 2 2 2 2 2 2 2 2 2 2 2 2 2 2 2 3 3 4 4 5 4 3 2 3 3 3 4 3
4 4 3 3 2 2 2 1 1 2 2 2 2 2 3 3 3 3 3 3 3 3 3 3 3 3 4 4 3 4 7 5 3 3 3 3 3 3
4 3 3 3 2 2 2 2 2 1 2 2 2 3 3 3 3 3 3 4 4 3 4 4 4 4 3 2 3 3 3 7 6 4 3 3 3 3
3 3 3 3 2 1 1 1 2 2 2 2 2 2 2 2 3 3 3 4 3 3 4 3 3 3 3 3 4 4 3 3 6 7 7 6 3 3
3 3 2 1 1 1 1 1 2 1 1 1 1 1 2 2 2 3 3 3 3 3 3 3 2 2 3 4 4 3 4 3 3 3 4 7 9 8
Wind_Direction
232 229 232 243 241 254 249 223 226 260 264 256 261 226 212 190 173 192 184 197 204 211 210 210 214 217 220 221 222 221 222 220 219 224 228 232 233 232
226 225 230 244 238 239 242 236 229 245 266 254 252 237 245 239 208 219 204 194 206 213 211 211 212 214 217 220 219 219 221 220 217 220 227 232 233 232
224 222 223 239 249 260 247 233 239 248 262 270 257 246 250 248 232 238 217 206 206 209 211 211 212 213 215 217 217 218 220 220 218 221 225 229 232 236
222 224 224 229 231 253 258 255 251 246 242 257 263 258 255 230 224 230 237 232 222 208 208 210 212 213 214 216 217 217 218 218 217 220 223 227 230 234
221 220 223 222 234 242 248 248 256 262 242 241 256 253 248 232 229 239 241 247 247 226 206 210 213 213 213 215 216 216 216 218 217 217 221 225 229 232
223 220 223 215 224 245 250 245 252 268 264 257 257 253 247 239 224 231 245 242 250 247 223 207 205 210 214 215 216 217 215 215 217 218 220 224 228 232
237 229 220 206 212 220 241 233 242 248 256 255 252 249 246 243 241 232 231 230 250 228 224 226 202 206 214 221 220 218 215 213 214 215 217 221 225 229
238 232 224 204 216 218 225 231 231 240 256 260 262 259 256 255 262 258 240 259 271 263 267 273 237 211 207 202 208 209 211 213 215 217 220 222 224 227
236 230 253 252 211 237 225 228 241 244 237 243 258 264 269 271 277 280 278 273 262 256 267 269 261 255 234 213 197 201 206 211 215 218 222 224 226 228
239 240 229 242 274 279 253 232 228 247 235 231 243 261 268 271 254 249 252 261 261 263 224 246 257 251 252 188 193 195 203 211 216 220 223 227 230 233
241 242 199 180 235 281 259 259 270 277 267 241 225 246 258 265 257 258 252 240 267 270 240 241 255 259 250 229 214 205 202 208 214 219 223 227 230 233
216 196 157 151 135 143 254 258 272 290 311 302 271 261 249 247 228 212 235 251 259 270 243 247 258 266 270 238 202 202 216 222 220 221 221 223 223 224
232 195 173 165 171 204 233 243 249 271 286 282 276 271 256 236 216 210 212 227 246 257 253 259 267 262 248 260 254 217 207 212 210 225 228 228 222 214
271 192 154 174 201 234 245 252 263 270 264 265 277 274 260 252 248 232 222 229 230 241 248 248 255 252 262 269 267 246 238 220 209 210 212 219 225 230
265 206 205 226 237 240 238 243 249 245 247 248 257 258 257 247 252 239 231 234 246 252 249 235 239 245 243 249 258 253 253 243 221 215 212 207 209 209
240 232 217 227 241 252 242 226 221 223 228 241 253 252 252 251 241 232 238 234 246 255 242 235 234 238 246 251 249 255 246 237 228 231 228 232 222 210
235 238 230 225 226 223 217 212 208 215 228 240 246 246 247 255 255 245 239 239 244 249 251 242 234 227 237 251 259 254 250 252 236 235 247 255 239 219
195 239 240 241 241 231 223 219 218 223 228 230 236 239 244 254 264 263 251 252 255 255 256 255 251 249 250 250 233 248 252 251 252 247 248 256 254 232
215 244 243 245 249 245 231 235 234 229 235 237 234 235 238 245 256 266 267 258 257 257 252 244 240 246 262 265 250 225 230 241 247 252 250 248 253 246
234 244 244 240 235 236 232 229 234 225 231 238 233 236 240 245 247 250 254 255 259 261 253 242 241 239 246 263 266 249 223 223 225 241 254 259 255 258
239 240 248 253 244 226 224 217 222 223 232 235 231 240 240 246 256 265 266 264 259 260 262 256 245 232 235 255 263 259 238 221 223 224 235 253 261 255
248 245 243 242 239 236 223 226 227 222 231 236 233 243 243 245 256 258 260 264 260 262 268 264 242 231 227 242 261 266 255 235 237 246 250 234 232 241
244 249 251 242 230 215 226 254 255 238 245 254 259 267 270 265 265 265 268 271 274 274 274 275 268 246 244 243 252 258 263 256 240 229 245 242 238 245